When you browse on this site, cookies collect data to enhance your experience and personalize the content and advertising you see.
Visit our Privacy Policy to learn more. By continuing to use the site, you agree to this use of cookies and data.

Hourly Weather Dorchester

Today, 3 July, Friday

Time Temperature Precipitation Wind Pressure Humidity
00:00 +11°C° 0 mm 3 mps 757 mmHg 94%
01:00 +11°C° 0 mm 3 mps 757 mmHg 95%
02:00 +11°C° 0 mm 3 mps 757 mmHg 95%
03:00 +10°C° 0 mm 3 mps 757 mmHg 95%
04:00 +11°C° 0 mm 3 mps 757 mmHg 94%
05:00 +11°C° 0 mm 4 mps 757 mmHg 93%
06:00 +12°C° 0 mm 4 mps 757 mmHg 91%
07:00 +13°C° 0 mm 5 mps 757 mmHg 88%
08:00 +13°C° 0 mm 5 mps 757 mmHg 86%
09:00 +14°C° 0 mm 6 mps 757 mmHg 83%
10:00 +15°C° 0 mm 6 mps 757 mmHg 79%
11:00 +16°C° 0 mm 7 mps 757 mmHg 76%
12:00 +17°C° 0 mm 7 mps 757 mmHg 72%
13:00 +17°C° 0 mm 7 mps 757 mmHg 73%
14:00 +17°C° 0 mm 8 mps 757 mmHg 74%
15:00 +17°C° 0 mm 8 mps 756 mmHg 76%
16:00 +16°C° 0.1 mm 8 mps 756 mmHg 80%
17:00 +15°C° 0.1 mm 8 mps 756 mmHg 83%
18:00 +13°C° 0.1 mm 8 mps 756 mmHg 87%
19:00 +14°C° 0 mm 7 mps 756 mmHg 88%
20:00 +14°C° 0 mm 7 mps 756 mmHg 89%
21:00 +15°C° 0 mm 7 mps 756 mmHg 90%
22:00 +15°C° 0 mm 7 mps 756 mmHg 91%
23:00 +15°C° 0 mm 7 mps 755 mmHg 91%

Tomorrow, 4 July, Saturday

Time Temperature Precipitation Wind Pressure Humidity
00:00 +15°C° 0 mm 7 mps 755 mmHg 92%
01:00 +15°C° 0 mm 7 mps 755 mmHg 92%
02:00 +16°C° 0 mm 7 mps 755 mmHg 92%
03:00 +16°C° 0 mm 6 mps 754 mmHg 92%
04:00 +16°C° 0.4 mm 6 mps 754 mmHg 94%
05:00 +16°C° 0.4 mm 6 mps 754 mmHg 95%
06:00 +16°C° 0.4 mm 6 mps 754 mmHg 96%
07:00 +16°C° 0.3 mm 7 mps 754 mmHg 96%
08:00 +16°C° 0.3 mm 7 mps 753 mmHg 95%
09:00 +17°C° 0.3 mm 7 mps 753 mmHg 95%
10:00 +17°C° 0.3 mm 7 mps 753 mmHg 94%
11:00 +17°C° 0.3 mm 7 mps 753 mmHg 93%
12:00 +18°C° 0.3 mm 7 mps 753 mmHg 92%
13:00 +18°C° 0.1 mm 7 mps 753 mmHg 91%
14:00 +18°C° 0.1 mm 7 mps 753 mmHg 89%
15:00 +17°C° 0.1 mm 7 mps 753 mmHg 88%
16:00 +17°C° 0 mm 7 mps 753 mmHg 88%
17:00 +18°C° 0 mm 7 mps 753 mmHg 88%
18:00 +19°C° 0 mm 6 mps 753 mmHg 88%
19:00 +17°C° 0 mm 6 mps 753 mmHg 88%
20:00 +17°C° 0 mm 6 mps 754 mmHg 89%
21:00 +17°C° 0 mm 6 mps 754 mmHg 89%
22:00 +17°C° 0 mm 6 mps 754 mmHg 88%
23:00 +16°C° 0 mm 6 mps 754 mmHg 87%

Day after tomorrow, 5 July, Sunday

Time Temperature Precipitation Wind Pressure Humidity
00:00 +16°C° 0 mm 6 mps 754 mmHg 85%
01:00 +16°C° 0 mm 6 mps 753 mmHg 85%
02:00 +16°C° 0 mm 7 mps 753 mmHg 85%
03:00 +16°C° 0 mm 7 mps 753 mmHg 85%
04:00 +16°C° 0.1 mm 8 mps 752 mmHg 86%
05:00 +17°C° 0.1 mm 8 mps 752 mmHg 87%
06:00 +17°C° 0.1 mm 9 mps 751 mmHg 88%
07:00 +17°C° 0.1 mm 9 mps 751 mmHg 86%
08:00 +18°C° 0.1 mm 10 mps 751 mmHg 84%
09:00 +18°C° 0.1 mm 10 mps 752 mmHg 82%
10:00 +18°C° 0.1 mm 10 mps 752 mmHg 79%
11:00 +18°C° 0.1 mm 10 mps 752 mmHg 76%
12:00 +18°C° 0.1 mm 10 mps 752 mmHg 73%
13:00 +18°C° 0 mm 9 mps 753 mmHg 70%
14:00 +18°C° 0 mm 9 mps 753 mmHg 67%
15:00 +18°C° 0 mm 9 mps 753 mmHg 64%
16:00 +17°C° 0 mm 9 mps 753 mmHg 66%
17:00 +16°C° 0 mm 8 mps 753 mmHg 68%
18:00 +15°C° 0 mm 8 mps 753 mmHg 70%
19:00 +14°C° 0 mm 7 mps 754 mmHg 72%
20:00 +12°C° 0 mm 7 mps 754 mmHg 74%
21:00 +11°C° 0 mm 6 mps 754 mmHg 77%
22:00 +11°C° 0 mm 6 mps 754 mmHg 78%
23:00 +10°C° 0 mm 6 mps 754 mmHg 79%

6 July, Monday

Time Temperature Precipitation Wind Pressure Humidity
00:00 +10°C° 0 mm 6 mps 754 mmHg 80%
01:00 +10°C° 0 mm 6 mps 754 mmHg 80%
02:00 +9°C° 0 mm 6 mps 754 mmHg 80%
03:00 +9°C° 0 mm 6 mps 754 mmHg 79%
04:00 +10°C° 0 mm 7 mps 755 mmHg 79%
05:00 +10°C° 0 mm 7 mps 755 mmHg 79%
06:00 +11°C° 0 mm 7 mps 756 mmHg 78%
07:00 +11°C° 0 mm 7 mps 756 mmHg 76%
08:00 +12°C° 0 mm 7 mps 757 mmHg 74%
09:00 +14°C° 0 mm 7 mps 758 mmHg 72%
10:00 +15°C° 0 mm 7 mps 758 mmHg 69%
11:00 +16°C° 0 mm 7 mps 759 mmHg 66%
12:00 +16°C° 0 mm 7 mps 760 mmHg 64%
13:00 +17°C° 0 mm 7 mps 760 mmHg 62%
14:00 +17°C° 0 mm 7 mps 761 mmHg 60%
15:00 +18°C° 0 mm 7 mps 761 mmHg 59%
16:00 +17°C° 0 mm 6 mps 762 mmHg 61%
17:00 +17°C° 0 mm 6 mps 762 mmHg 63%
18:00 +16°C° 0 mm 5 mps 762 mmHg 64%
19:00 +14°C° 0 mm 4 mps 763 mmHg 69%
20:00 +12°C° 0 mm 3 mps 763 mmHg 75%
21:00 +10°C° 0 mm 3 mps 763 mmHg 80%
22:00 +10°C° 0 mm 2 mps 764 mmHg 82%
23:00 +9°C° 0 mm 2 mps 764 mmHg 84%

7 July, Tuesday

Time Temperature Precipitation Wind Pressure Humidity
00:00 +8°C° 0 mm 2 mps 764 mmHg 86%
01:00 +8°C° 0 mm 2 mps 764 mmHg 88%
02:00 +8°C° 0 mm 2 mps 764 mmHg 89%
03:00 +7°C° 0 mm 2 mps 764 mmHg 91%
04:00 +8°C° 0 mm 2 mps 764 mmHg 88%
05:00 +9°C° 0 mm 2 mps 764 mmHg 86%
06:00 +10°C° 0 mm 2 mps 764 mmHg 84%
07:00 +13°C° 0 mm 2 mps 764 mmHg 78%
08:00 +15°C° 0 mm 2 mps 764 mmHg 72%
09:00 +16°C° 0 mm 2 mps 764 mmHg 66%
10:00 +17°C° 0 mm 2 mps 764 mmHg 63%
11:00 +18°C° 0 mm 2 mps 764 mmHg 61%
12:00 +19°C° 0 mm 2 mps 764 mmHg 59%
13:00 +19°C° 0 mm 2 mps 764 mmHg 59%
14:00 +19°C° 0 mm 2 mps 764 mmHg 59%
15:00 +19°C° 0 mm 2 mps 764 mmHg 59%
16:00 +19°C° 0 mm 2 mps 763 mmHg 61%
17:00 +20°C° 0 mm 1 mps 763 mmHg 64%
18:00 +20°C° 0 mm 1 mps 763 mmHg 66%
19:00 +19°C° 0 mm 1 mps 763 mmHg 71%
20:00 +16°C° 0 mm 1 mps 763 mmHg 76%
21:00 +15°C° 0 mm 1 mps 763 mmHg 81%
22:00 +14°C° 0 mm 1 mps 763 mmHg 84%
23:00 +13°C° 0 mm 2 mps 763 mmHg 88%

8 July, Wednesday

Time Temperature Precipitation Wind Pressure Humidity
00:00 +13°C° 0 mm 2 mps 763 mmHg 91%
01:00 +12°C° 0 mm 2 mps 763 mmHg 91%
02:00 +12°C° 0 mm 2 mps 762 mmHg 91%
03:00 +12°C° 0 mm 1 mps 762 mmHg 90%
04:00 +12°C° 0 mm 2 mps 762 mmHg 87%
05:00 +13°C° 0 mm 2 mps 762 mmHg 83%
06:00 +14°C° 0 mm 2 mps 762 mmHg 80%
07:00 +15°C° 0 mm 2 mps 762 mmHg 74%
08:00 +17°C° 0 mm 3 mps 762 mmHg 68%
09:00 +19°C° 0 mm 3 mps 761 mmHg 62%
10:00 +20°C° 0 mm 3 mps 761 mmHg 60%
11:00 +21°C° 0 mm 4 mps 761 mmHg 59%
12:00 +22°C° 0 mm 4 mps 761 mmHg 57%
13:00 +22°C° 0 mm 4 mps 761 mmHg 58%
14:00 +22°C° 0 mm 4 mps 760 mmHg 59%
15:00 +23°C° 0 mm 4 mps 760 mmHg 59%
16:00 +22°C° 0 mm 4 mps 759 mmHg 63%
17:00 +21°C° 0 mm 4 mps 759 mmHg 66%
18:00 +21°C° 0 mm 3 mps 759 mmHg 69%
19:00 +19°C° 0 mm 3 mps 759 mmHg 73%
20:00 +17°C° 0 mm 3 mps 759 mmHg 78%
21:00 +15°C° 0 mm 2 mps 759 mmHg 82%
22:00 +14°C° 0 mm 2 mps 758 mmHg 79%
23:00 +13°C° 0 mm 3 mps 758 mmHg 76%
Show more